Time,TemperatureF,DewpointF,PressureIn,WindDirection,WindDirectionDegrees,WindSpeedMPH,WindSpeedGustMPH,Humidity,HourlyPrecipIn,Conditions,Clouds,dailyrainin,SoftwareType,DateUTC
2013-09-09 00:01:00,55.4,42.6,30.08,North,10,9.0,9.0,62,0.00,,CLR,0.00,VWS V14.01,2013-09-09 04:01:00,
2013-09-09 00:02:00,55.4,42.6,30.08,North,10,9.0,9.0,62,0.00,,CLR,0.00,VWS V14.01,2013-09-09 04:02:00,
2013-09-09 00:07:00,55.4,42.6,30.08,North,10,9.0,9.0,62,0.00,,CLR,0.00,VWS V14.01,2013-09-09 04:07:00,
2013-09-09 00:12:00,55.4,42.6,30.08,North,10,9.0,9.0,62,0.00,,CLR,0.00,VWS V14.01,2013-09-09 04:12:00,
2013-09-09 00:17:00,55.4,42.6,30.08,North,10,9.0,9.0,62,0.00,,CLR,0.00,VWS V14.01,2013-09-09 04:17:00,
2013-09-09 00:22:00,55.4,42.6,30.08,North,10,9.0,9.0,62,0.00,,CLR,0.00,VWS V14.01,2013-09-09 04:22:00,
2013-09-09 00:27:00,55.4,42.6,30.08,North,10,9.0,9.0,62,0.00,,CLR,0.00,VWS V14.01,2013-09-09 04:27:00,
2013-09-09 00:32:00,55.4,42.6,30.08,North,10,9.0,9.0,62,0.00,,CLR,0.00,VWS V14.01,2013-09-09 04:32:00,
2013-09-09 00:42:00,55.4,42.6,30.08,North,10,9.0,9.0,62,0.00,,CLR,0.00,VWS V14.01,2013-09-09 04:42:00,
2013-09-09 00:47:00,55.4,42.6,30.08,North,10,9.0,9.0,62,0.00,,CLR,0.00,VWS V14.01,2013-09-09 04:47:00,
2013-09-09 00:52:00,55.4,42.6,30.08,North,10,9.0,9.0,62,0.00,,CLR,0.00,VWS V14.01,2013-09-09 04:52:00,
2013-09-09 00:56:00,53.6,42.9,30.11,NNE,30,8.0,8.0,67,0.00,,CLR,0.00,VWS V14.01,2013-09-09 04:56:00,
2013-09-09 00:57:00,55.4,42.6,30.08,North,10,9.0,9.0,62,0.00,,CLR,0.00,VWS V14.01,2013-09-09 04:57:00,
2013-09-09 01:02:00,53.6,42.9,30.11,NNE,30,8.0,8.0,67,0.00,,CLR,0.00,VWS V14.01,2013-09-09 05:02:00,
2013-09-09 01:10:00,53.6,42.9,30.11,NNE,30,8.0,8.0,67,0.00,,CLR,0.00,VWS V14.01,2013-09-09 05:10:00,
2013-09-09 01:15:00,53.6,42.9,30.11,NNE,30,8.0,8.0,67,0.00,,CLR,0.00,VWS V14.01,2013-09-09 05:15:00,
2013-09-09 01:20:00,53.6,42.9,30.11,NNE,30,8.0,8.0,67,0.00,,CLR,0.00,VWS V14.01,2013-09-09 05:20:00,
2013-09-09 01:26:00,53.6,42.9,30.11,NNE,30,8.0,8.0,67,0.00,,CLR,0.00,VWS V14.01,2013-09-09 05:26:00,
2013-09-09 01:31:00,53.6,42.9,30.11,NNE,30,8.0,8.0,67,0.00,,CLR,0.00,VWS V14.01,2013-09-09 05:31:00,
2013-09-09 01:36:00,53.6,42.9,30.11,NNE,30,8.0,8.0,67,0.00,,CLR,0.00,VWS V14.01,2013-09-09 05:36:00,
2013-09-09 01:42:00,53.6,42.9,30.11,NNE,30,8.0,8.0,67,0.00,,CLR,0.00,VWS V14.01,2013-09-09 05:42:00,
2013-09-09 01:48:00,53.6,42.9,30.11,NNE,30,8.0,8.0,67,0.00,,CLR,0.00,VWS V14.01,2013-09-09 05:48:00,
2013-09-09 01:53:00,53.6,42.9,30.11,NNE,30,8.0,8.0,67,0.00,,CLR,0.00,VWS V14.01,2013-09-09 05:53:00,
2013-09-09 01:56:00,51.8,44.5,30.11,NNE,20,8.0,8.0,76,0.00,,CLR,0.00,VWS V14.01,2013-09-09 05:56:00,
2013-09-09 01:58:00,53.6,42.9,30.11,NNE,30,8.0,8.0,67,0.00,,CLR,0.00,VWS V14.01,2013-09-09 05:58:00,
2013-09-09 02:03:00,51.8,44.5,30.11,NNE,20,8.0,8.0,76,0.00,,CLR,0.00,VWS V14.01,2013-09-09 06:03:00,
2013-09-09 02:08:00,51.8,44.5,30.11,NNE,20,8.0,8.0,76,0.00,,CLR,0.00,VWS V14.01,2013-09-09 06:08:00,
2013-09-09 02:14:00,51.8,44.5,30.11,NNE,20,8.0,8.0,76,0.00,,CLR,0.00,VWS V14.01,2013-09-09 06:14:00,
2013-09-09 02:21:00,51.8,44.5,30.11,NNE,20,8.0,8.0,76,0.00,,CLR,0.00,VWS V14.01,2013-09-09 06:21:00,
2013-09-09 02:26:00,51.8,44.5,30.11,NNE,20,8.0,8.0,76,0.00,,CLR,0.00,VWS V14.01,2013-09-09 06:26:00,
2013-09-09 02:33:00,51.8,44.5,30.11,NNE,20,8.0,8.0,76,0.00,,CLR,0.00,VWS V14.01,2013-09-09 06:33:00,
2013-09-09 02:40:00,51.8,44.5,30.11,NNE,20,8.0,8.0,76,0.00,,CLR,0.00,VWS V14.01,2013-09-09 06:40:00,
2013-09-09 02:45:00,51.8,44.5,30.11,NNE,20,8.0,8.0,76,0.00,,CLR,0.00,VWS V14.01,2013-09-09 06:45:00,
2013-09-09 02:50:00,51.8,44.5,30.11,NNE,20,8.0,8.0,76,0.00,,CLR,0.00,VWS V14.01,2013-09-09 06:50:00,
2013-09-09 02:55:00,51.8,44.5,30.11,NNE,20,8.0,8.0,76,0.00,,CLR,0.00,VWS V14.01,2013-09-09 06:55:00,
2013-09-09 02:56:00,51.8,44.5,30.12,North,10,8.0,8.0,76,0.00,,CLR,0.00,VWS V14.01,2013-09-09 06:56:00,
2013-09-09 03:00:00,51.8,44.5,30.12,North,10,8.0,8.0,76,0.00,,CLR,0.00,VWS V14.01,2013-09-09 07:00:00,
2013-09-09 03:05:00,51.8,44.5,30.12,North,10,8.0,8.0,76,0.00,,CLR,0.00,VWS V14.01,2013-09-09 07:05:00,
2013-09-09 03:11:00,51.8,44.5,30.12,North,10,8.0,8.0,76,0.00,,CLR,0.00,VWS V14.01,2013-09-09 07:11:00,
2013-09-09 03:16:00,51.8,44.5,30.12,North,10,8.0,8.0,76,0.00,,CLR,0.00,VWS V14.01,2013-09-09 07:16:00,
2013-09-09 03:21:00,51.8,44.5,30.12,North,10,8.0,8.0,76,0.00,,CLR,0.00,VWS V14.01,2013-09-09 07:21:00,
2013-09-09 03:28:00,51.8,44.5,30.12,North,10,8.0,8.0,76,0.00,,CLR,0.00,VWS V14.01,2013-09-09 07:28:00,
2013-09-09 03:33:00,51.8,44.5,30.12,North,10,8.0,8.0,76,0.00,,CLR,0.00,VWS V14.01,2013-09-09 07:33:00,
2013-09-09 03:40:00,51.8,44.5,30.12,North,10,8.0,8.0,76,0.00,,CLR,0.00,VWS V14.01,2013-09-09 07:40:00,
2013-09-09 03:47:00,51.8,44.5,30.12,North,10,8.0,8.0,76,0.00,,CLR,0.00,VWS V14.01,2013-09-09 07:47:00,
2013-09-09 03:52:00,51.8,44.5,30.12,North,10,8.0,8.0,76,0.00,,CLR,0.00,VWS V14.01,2013-09-09 07:52:00,
2013-09-09 03:56:00,50.0,44.7,30.14,NNE,20,8.0,8.0,82,0.00,,CLR,0.00,VWS V14.01,2013-09-09 07:56:00,
2013-09-09 03:57:00,51.8,44.5,30.12,North,10,8.0,8.0,76,0.00,,CLR,0.00,VWS V14.01,2013-09-09 07:57:00,
2013-09-09 04:02:00,50.0,44.7,30.14,NNE,20,8.0,8.0,82,0.00,,CLR,0.00,VWS V14.01,2013-09-09 08:02:00,
2013-09-09 04:11:00,50.0,44.7,30.14,NNE,20,8.0,8.0,82,0.00,,CLR,0.00,VWS V14.01,2013-09-09 08:11:00,
2013-09-09 04:16:00,50.0,44.7,30.14,NNE,20,8.0,8.0,82,0.00,,CLR,0.00,VWS V14.01,2013-09-09 08:16:00,
2013-09-09 04:22:00,50.0,44.7,30.14,NNE,20,8.0,8.0,82,0.00,,CLR,0.00,VWS V14.01,2013-09-09 08:22:00,
2013-09-09 04:27:00,50.0,44.7,30.14,NNE,20,8.0,8.0,82,0.00,,CLR,0.00,VWS V14.01,2013-09-09 08:27:00,
2013-09-09 04:32:00,50.0,44.7,30.14,NNE,20,8.0,8.0,82,0.00,,CLR,0.00,VWS V14.01,2013-09-09 08:32:00,
2013-09-09 04:39:00,50.0,44.7,30.14,NNE,20,8.0,8.0,82,0.00,,CLR,0.00,VWS V14.01,2013-09-09 08:39:00,
2013-09-09 04:45:00,50.0,44.7,30.14,NNE,20,8.0,8.0,82,0.00,,CLR,0.00,VWS V14.01,2013-09-09 08:45:00,
2013-09-09 04:50:00,50.0,44.7,30.14,NNE,20,8.0,8.0,82,0.00,,CLR,0.00,VWS V14.01,2013-09-09 08:50:00,
2013-09-09 04:55:00,50.0,44.7,30.14,NNE,20,8.0,8.0,82,0.00,,CLR,0.00,VWS V14.01,2013-09-09 08:55:00,
2013-09-09 04:56:00,48.2,42.7,30.16,NNE,20,6.0,6.0,81,0.00,,CLR,0.00,VWS V14.01,2013-09-09 08:56:00,
2013-09-09 05:00:00,48.2,42.7,30.16,NNE,20,6.0,8.0,81,0.00,,CLR,0.00,VWS V14.01,2013-09-09 09:00:00,
2013-09-09 05:05:00,48.2,42.7,30.16,NNE,20,6.0,6.0,81,0.00,,CLR,0.00,VWS V14.01,2013-09-09 09:05:00,
2013-09-09 05:10:00,48.2,42.7,30.16,NNE,20,6.0,6.0,81,0.00,,CLR,0.00,VWS V14.01,2013-09-09 09:10:00,
2013-09-09 05:15:00,48.2,42.7,30.16,NNE,20,6.0,6.0,81,0.00,,CLR,0.00,VWS V14.01,2013-09-09 09:15:00,
2013-09-09 05:20:00,48.2,42.7,30.16,NNE,20,6.0,6.0,81,0.00,,CLR,0.00,VWS V14.01,2013-09-09 09:20:00,
2013-09-09 05:25:00,48.2,42.7,30.16,NNE,20,6.0,6.0,81,0.00,,CLR,0.00,VWS V14.01,2013-09-09 09:25:00,
2013-09-09 05:30:00,48.2,42.7,30.16,NNE,20,6.0,6.0,81,0.00,,CLR,0.00,VWS V14.01,2013-09-09 09:30:00,
2013-09-09 05:35:00,48.2,42.7,30.16,NNE,20,6.0,6.0,81,0.00,,CLR,0.00,VWS V14.01,2013-09-09 09:35:00,
2013-09-09 05:40:00,48.2,42.7,30.16,NNE,20,6.0,6.0,81,0.00,,CLR,0.00,VWS V14.01,2013-09-09 09:40:00,
2013-09-09 05:46:00,48.2,42.7,30.16,NNE,20,6.0,6.0,81,0.00,,CLR,0.00,VWS V14.01,2013-09-09 09:46:00,
2013-09-09 05:51:00,48.2,42.7,30.16,NNE,20,6.0,6.0,81,0.00,,CLR,0.00,VWS V14.01,2013-09-09 09:51:00,
2013-09-09 05:56:00,48.2,42.7,30.16,NNE,20,6.0,6.0,81,0.00,,CLR,0.00,VWS V14.01,2013-09-09 09:56:00,
2013-09-09 06:01:00,46.4,42.8,30.19,North,10,5.0,5.0,87,0.00,,CLR,0.00,VWS V14.01,2013-09-09 10:01:00,
2013-09-09 06:06:00,46.4,42.8,30.19,North,10,5.0,5.0,87,0.00,,CLR,0.00,VWS V14.01,2013-09-09 10:06:00,
2013-09-09 06:11:00,46.4,42.8,30.19,North,10,5.0,5.0,87,0.00,,CLR,0.00,VWS V14.01,2013-09-09 10:11:00,
2013-09-09 06:16:00,46.4,42.8,30.19,North,10,5.0,5.0,87,0.00,,CLR,0.00,VWS V14.01,2013-09-09 10:16:00,
2013-09-09 06:22:00,46.4,42.8,30.19,North,10,5.0,5.0,87,0.00,,CLR,0.00,VWS V14.01,2013-09-09 10:22:00,
2013-09-09 06:27:00,46.4,42.8,30.19,North,10,5.0,5.0,87,0.00,,CLR,0.00,VWS V14.01,2013-09-09 10:27:00,
2013-09-09 06:32:00,46.4,42.8,30.19,North,10,5.0,5.0,87,0.00,,CLR,0.00,VWS V14.01,2013-09-09 10:32:00,
2013-09-09 06:37:00,46.4,42.8,30.19,North,10,5.0,5.0,87,0.00,,CLR,0.00,VWS V14.01,2013-09-09 10:37:00,
2013-09-09 06:42:00,46.4,42.8,30.19,North,10,5.0,5.0,87,0.00,,CLR,0.00,VWS V14.01,2013-09-09 10:42:00,
2013-09-09 06:47:00,46.4,42.8,30.19,North,10,5.0,5.0,87,0.00,,CLR,0.00,VWS V14.01,2013-09-09 10:47:00,
2013-09-09 06:52:00,46.4,42.8,30.19,North,10,5.0,5.0,87,0.00,,CLR,0.00,VWS V14.01,2013-09-09 10:52:00,
2013-09-09 06:56:00,48.2,42.7,30.22,North,10,4.0,4.0,81,0.00,,CLR,0.00,VWS V14.01,2013-09-09 10:56:00,
2013-09-09 06:57:00,46.4,42.8,30.19,North,10,5.0,5.0,87,0.00,,CLR,0.00,VWS V14.01,2013-09-09 10:57:00,
2013-09-09 07:02:00,48.2,42.7,30.22,North,10,4.0,4.0,81,0.00,,CLR,0.00,VWS V14.01,2013-09-09 11:02:00,
2013-09-09 07:07:00,48.2,42.7,30.22,North,10,4.0,4.0,81,0.00,,CLR,0.00,VWS V14.01,2013-09-09 11:07:00,
2013-09-09 07:12:00,48.2,42.7,30.22,North,10,4.0,4.0,81,0.00,,CLR,0.00,VWS V14.01,2013-09-09 11:12:00,
2013-09-09 07:19:00,48.2,42.7,30.22,North,10,4.0,4.0,81,0.00,,CLR,0.00,VWS V14.01,2013-09-09 11:19:00,
2013-09-09 07:24:00,48.2,42.7,30.22,North,10,4.0,4.0,81,0.00,,CLR,0.00,VWS V14.01,2013-09-09 11:24:00,
2013-09-09 07:29:00,48.2,42.7,30.22,North,10,4.0,4.0,81,0.00,,CLR,0.00,VWS V14.01,2013-09-09 11:29:00,
2013-09-09 07:37:00,48.2,42.7,30.22,North,10,4.0,4.0,81,0.00,,CLR,0.00,VWS V14.01,2013-09-09 11:37:00,
2013-09-09 07:42:00,48.2,42.7,30.22,North,10,4.0,4.0,81,0.00,,CLR,0.00,VWS V14.01,2013-09-09 11:42:00,
2013-09-09 07:50:00,48.2,42.7,30.22,North,10,4.0,4.0,81,0.00,,CLR,0.00,VWS V14.01,2013-09-09 11:50:00,
2013-09-09 07:55:00,48.2,42.7,30.22,North,10,4.0,4.0,81,0.00,,CLR,0.00,VWS V14.01,2013-09-09 11:55:00,
2013-09-09 07:56:00,53.6,42.9,30.23,North,10,5.0,5.0,67,0.00,,CLR,0.00,VWS V14.01,2013-09-09 11:56:00,
2013-09-09 08:00:00,53.6,42.9,30.23,North,10,5.0,5.0,67,0.00,,CLR,0.00,VWS V14.01,2013-09-09 12:00:00,
2013-09-09 08:05:00,53.6,42.9,30.23,North,10,5.0,5.0,67,0.00,,CLR,0.00,VWS V14.01,2013-09-09 12:05:00,
2013-09-09 08:12:00,53.6,42.9,30.23,North,10,5.0,5.0,67,0.00,,CLR,0.00,VWS V14.01,2013-09-09 12:12:00,
2013-09-09 08:16:00,53.6,42.9,30.23,North,10,5.0,5.0,67,0.00,,CLR,0.00,VWS V14.01,2013-09-09 12:16:00,
2013-09-09 08:22:00,53.6,42.9,30.23,North,10,5.0,5.0,67,0.00,,CLR,0.00,VWS V14.01,2013-09-09 12:22:00,
2013-09-09 08:28:00,53.6,42.9,30.23,North,10,5.0,5.0,67,0.00,,CLR,0.00,VWS V14.01,2013-09-09 12:28:00,
2013-09-09 08:33:00,53.6,42.9,30.23,North,10,5.0,5.0,67,0.00,,CLR,0.00,VWS V14.01,2013-09-09 12:33:00,
2013-09-09 08:38:00,53.6,42.9,30.23,North,10,5.0,5.0,67,0.00,,CLR,0.00,VWS V14.01,2013-09-09 12:38:00,
2013-09-09 08:43:00,53.6,42.9,30.23,North,10,5.0,5.0,67,0.00,,CLR,0.00,VWS V14.01,2013-09-09 12:43:00,
2013-09-09 08:49:00,53.6,42.9,30.23,North,10,5.0,5.0,67,0.00,,CLR,0.00,VWS V14.01,2013-09-09 12:49:00,
2013-09-09 08:54:00,53.6,42.9,30.23,North,10,5.0,5.0,67,0.00,,CLR,0.00,VWS V14.01,2013-09-09 12:54:00,
2013-09-09 08:56:00,57.2,44.7,30.24,North,10,9.0,9.0,63,0.00,,CLR,0.00,VWS V14.01,2013-09-09 12:56:00,
2013-09-09 08:59:00,53.6,42.9,30.23,North,10,5.0,5.0,67,0.00,,CLR,0.00,VWS V14.01,2013-09-09 12:59:00,
2013-09-09 09:04:00,57.2,44.7,30.24,North,10,9.0,9.0,63,0.00,,CLR,0.00,VWS V14.01,2013-09-09 13:04:00,
2013-09-09 09:09:00,57.2,44.7,30.24,North,10,9.0,9.0,63,0.00,,CLR,0.00,VWS V14.01,2013-09-09 13:09:00,
2013-09-09 09:16:00,57.2,44.7,30.24,North,10,9.0,9.0,63,0.00,,CLR,0.00,VWS V14.01,2013-09-09 13:16:00,
2013-09-09 09:21:00,57.2,44.7,30.24,North,10,9.0,9.0,63,0.00,,CLR,0.00,VWS V14.01,2013-09-09 13:21:00,
2013-09-09 09:26:00,57.2,44.7,30.24,North,10,9.0,9.0,63,0.00,,CLR,0.00,VWS V14.01,2013-09-09 13:26:00,
2013-09-09 09:31:00,57.2,44.7,30.24,North,10,9.0,9.0,63,0.00,,CLR,0.00,VWS V14.01,2013-09-09 13:31:00,
2013-09-09 09:36:00,57.2,44.7,30.24,North,10,9.0,9.0,63,0.00,,CLR,0.00,VWS V14.01,2013-09-09 13:36:00,
2013-09-09 09:41:00,57.2,44.7,30.24,North,10,9.0,9.0,63,0.00,,CLR,0.00,VWS V14.01,2013-09-09 13:41:00,
2013-09-09 09:50:00,57.2,44.7,30.24,North,10,9.0,9.0,63,0.00,,CLR,0.00,VWS V14.01,2013-09-09 13:50:00,
2013-09-09 09:55:00,57.2,44.7,30.24,North,10,9.0,9.0,63,0.00,,CLR,0.00,VWS V14.01,2013-09-09 13:55:00,
2013-09-09 09:56:00,62.6,44.8,30.24,North,0,0.0,0.0,52,0.00,,CLR,0.00,VWS V14.01,2013-09-09 13:56:00,
2013-09-09 10:00:00,62.6,44.8,30.24,North,0,0.0,9.0,52,0.00,,CLR,0.00,VWS V14.01,2013-09-09 14:00:00,
2013-09-09 10:05:00,62.6,44.8,30.24,North,0,0.0,0.0,52,0.00,,CLR,0.00,VWS V14.01,2013-09-09 14:05:00,
2013-09-09 10:10:00,62.6,44.8,30.24,North,0,0.0,0.0,52,0.00,,CLR,0.00,VWS V14.01,2013-09-09 14:10:00,
2013-09-09 10:15:00,62.6,44.8,30.24,North,0,0.0,0.0,52,0.00,,CLR,0.00,VWS V14.01,2013-09-09 14:15:00,
2013-09-09 10:20:00,62.6,44.8,30.24,North,0,0.0,0.0,52,0.00,,CLR,0.00,VWS V14.01,2013-09-09 14:20:00,
2013-09-09 10:25:00,62.6,44.8,30.24,North,0,0.0,0.0,52,0.00,,CLR,0.00,VWS V14.01,2013-09-09 14:25:00,
2013-09-09 10:34:00,62.6,44.8,30.24,North,0,0.0,0.0,52,0.00,,CLR,0.00,VWS V14.01,2013-09-09 14:34:00,
2013-09-09 10:39:00,62.6,44.8,30.24,North,0,0.0,0.0,52,0.00,,CLR,0.00,VWS V14.01,2013-09-09 14:39:00,
2013-09-09 10:44:00,62.6,44.8,30.24,North,0,0.0,0.0,52,0.00,,CLR,0.00,VWS V14.01,2013-09-09 14:44:00,
2013-09-09 10:49:00,62.6,44.8,30.24,North,0,0.0,0.0,52,0.00,,CLR,0.00,VWS V14.01,2013-09-09 14:49:00,
2013-09-09 10:54:00,62.6,44.8,30.24,North,0,0.0,0.0,52,0.00,,CLR,0.00,VWS V14.01,2013-09-09 14:54:00,
2013-09-09 10:56:00,64.4,40.8,30.24,South,170,5.0,5.0,42,0.00,,CLR,0.00,VWS V14.01,2013-09-09 14:56:00,
2013-09-09 10:59:00,62.6,44.8,30.24,North,0,0.0,0.0,52,0.00,,CLR,0.00,VWS V14.01,2013-09-09 14:59:00,
2013-09-09 11:04:00,64.4,40.8,30.24,South,170,5.0,5.0,42,0.00,,CLR,0.00,VWS V14.01,2013-09-09 15:04:00,
2013-09-09 11:09:00,64.4,40.8,30.24,South,170,5.0,5.0,42,0.00,,CLR,0.00,VWS V14.01,2013-09-09 15:09:00,
2013-09-09 11:15:00,64.4,40.8,30.24,South,170,5.0,5.0,42,0.00,,CLR,0.00,VWS V14.01,2013-09-09 15:15:00,
2013-09-09 11:20:00,64.4,40.8,30.24,South,170,5.0,5.0,42,0.00,,CLR,0.00,VWS V14.01,2013-09-09 15:20:00,
2013-09-09 11:29:00,64.4,40.8,30.24,South,170,5.0,5.0,42,0.00,,CLR,0.00,VWS V14.01,2013-09-09 15:29:00,
2013-09-09 11:34:00,64.4,40.8,30.24,South,170,5.0,5.0,42,0.00,,CLR,0.00,VWS V14.01,2013-09-09 15:34:00,
2013-09-09 11:40:00,64.4,40.8,30.24,South,170,5.0,5.0,42,0.00,,CLR,0.00,VWS V14.01,2013-09-09 15:40:00,
2013-09-09 11:45:00,64.4,40.8,30.24,South,170,5.0,5.0,42,0.00,,CLR,0.00,VWS V14.01,2013-09-09 15:45:00,
2013-09-09 11:51:00,64.4,40.8,30.24,South,170,5.0,5.0,42,0.00,,CLR,0.00,VWS V14.01,2013-09-09 15:51:00,
2013-09-09 11:56:00,64.4,40.8,30.24,South,170,5.0,5.0,42,0.00,,CLR,0.00,VWS V14.01,2013-09-09 15:56:00,
2013-09-09 12:01:00,64.4,42.6,30.24,SSW,200,5.0,5.0,45,0.00,,CLR,0.00,VWS V14.01,2013-09-09 16:01:00,
2013-09-09 12:06:00,64.4,42.6,30.24,SSW,200,5.0,5.0,45,0.00,,CLR,0.00,VWS V14.01,2013-09-09 16:06:00,
2013-09-09 12:11:00,64.4,42.6,30.24,SSW,200,5.0,5.0,45,0.00,,CLR,0.00,VWS V14.01,2013-09-09 16:11:00,
2013-09-09 12:17:00,64.4,42.6,30.24,SSW,200,5.0,5.0,45,0.00,,CLR,0.00,VWS V14.01,2013-09-09 16:17:00,
2013-09-09 12:23:00,64.4,42.6,30.24,SSW,200,5.0,5.0,45,0.00,,CLR,0.00,VWS V14.01,2013-09-09 16:23:00,
2013-09-09 12:28:00,64.4,42.6,30.24,SSW,200,5.0,5.0,45,0.00,,CLR,0.00,VWS V14.01,2013-09-09 16:28:00,
2013-09-09 12:35:00,64.4,42.6,30.24,SSW,200,5.0,5.0,45,0.00,,CLR,0.00,VWS V14.01,2013-09-09 16:35:00,
2013-09-09 12:40:00,64.4,42.6,30.24,SSW,200,5.0,5.0,45,0.00,,CLR,0.00,VWS V14.01,2013-09-09 16:40:00,
2013-09-09 12:45:00,64.4,42.6,30.24,SSW,200,5.0,5.0,45,0.00,,CLR,0.00,VWS V14.01,2013-09-09 16:45:00,
2013-09-09 12:50:00,64.4,42.6,30.24,SSW,200,5.0,5.0,45,0.00,,CLR,0.00,VWS V14.01,2013-09-09 16:50:00,
2013-09-09 12:55:00,64.4,42.6,30.24,SSW,200,5.0,5.0,45,0.00,,CLR,0.00,VWS V14.01,2013-09-09 16:55:00,
2013-09-09 12:56:00,66.2,44.8,30.23,SSW,200,8.0,8.0,46,0.00,,CLR,0.00,VWS V14.01,2013-09-09 16:56:00,
2013-09-09 13:00:00,66.2,44.8,30.23,SSW,200,8.0,8.0,46,0.00,,CLR,0.00,VWS V14.01,2013-09-09 17:00:00,
2013-09-09 13:05:00,66.2,44.8,30.23,SSW,200,8.0,8.0,46,0.00,,CLR,0.00,VWS V14.01,2013-09-09 17:05:00,
2013-09-09 13:10:00,66.2,44.8,30.23,SSW,200,8.0,8.0,46,0.00,,CLR,0.00,VWS V14.01,2013-09-09 17:10:00,
2013-09-09 13:20:00,66.2,44.8,30.23,SSW,200,8.0,8.0,46,0.00,,CLR,0.00,VWS V14.01,2013-09-09 17:20:00,
2013-09-09 13:27:00,66.2,44.8,30.23,SSW,200,8.0,8.0,46,0.00,,CLR,0.00,VWS V14.01,2013-09-09 17:27:00,
2013-09-09 13:32:00,66.2,44.8,30.23,SSW,200,8.0,8.0,46,0.00,,CLR,0.00,VWS V14.01,2013-09-09 17:32:00,
2013-09-09 13:37:00,66.2,44.8,30.23,SSW,200,8.0,8.0,46,0.00,,CLR,0.00,VWS V14.01,2013-09-09 17:37:00,
2013-09-09 13:42:00,66.2,44.8,30.23,SSW,200,8.0,8.0,46,0.00,,CLR,0.00,VWS V14.01,2013-09-09 17:42:00,
2013-09-09 13:47:00,66.2,44.8,30.23,SSW,200,8.0,8.0,46,0.00,,CLR,0.00,VWS V14.01,2013-09-09 17:47:00,
2013-09-09 13:52:00,66.2,44.8,30.23,SSW,200,8.0,8.0,46,0.00,,CLR,0.00,VWS V14.01,2013-09-09 17:52:00,
2013-09-09 13:56:00,64.4,42.6,30.22,South,190,5.0,5.0,45,0.00,,CLR,0.00,VWS V14.01,2013-09-09 17:56:00,
2013-09-09 13:57:00,66.2,44.8,30.23,SSW,200,8.0,8.0,46,0.00,,CLR,0.00,VWS V14.01,2013-09-09 17:57:00,
2013-09-09 14:02:00,64.4,42.6,30.22,South,190,5.0,5.0,45,0.00,,CLR,0.00,VWS V14.01,2013-09-09 18:02:00,
2013-09-09 14:07:00,64.4,42.6,30.22,South,190,5.0,5.0,45,0.00,,CLR,0.00,VWS V14.01,2013-09-09 18:07:00,
2013-09-09 14:12:00,64.4,42.6,30.22,South,190,5.0,5.0,45,0.00,,CLR,0.00,VWS V14.01,2013-09-09 18:12:00,
2013-09-09 14:17:00,64.4,42.6,30.22,South,190,5.0,5.0,45,0.00,,CLR,0.00,VWS V14.01,2013-09-09 18:17:00,
2013-09-09 14:22:00,64.4,42.6,30.22,South,190,5.0,5.0,45,0.00,,CLR,0.00,VWS V14.01,2013-09-09 18:22:00,
2013-09-09 14:27:00,64.4,42.6,30.22,South,190,5.0,5.0,45,0.00,,CLR,0.00,VWS V14.01,2013-09-09 18:27:00,
2013-09-09 14:32:00,64.4,42.6,30.22,South,190,5.0,5.0,45,0.00,,CLR,0.00,VWS V14.01,2013-09-09 18:32:00,
2013-09-09 14:37:00,64.4,42.6,30.22,South,190,5.0,5.0,45,0.00,,CLR,0.00,VWS V14.01,2013-09-09 18:37:00,
2013-09-09 14:42:00,64.4,42.6,30.22,South,190,5.0,5.0,45,0.00,,CLR,0.00,VWS V14.01,2013-09-09 18:42:00,
2013-09-09 14:50:00,64.4,42.6,30.22,South,190,5.0,5.0,45,0.00,,CLR,0.00,VWS V14.01,2013-09-09 18:50:00,
2013-09-09 14:55:00,64.4,42.6,30.22,South,190,5.0,5.0,45,0.00,,CLR,0.00,VWS V14.01,2013-09-09 18:55:00,
2013-09-09 14:56:00,66.2,46.5,30.21,South,190,8.0,8.0,49,0.00,,CLR,0.00,VWS V14.01,2013-09-09 18:56:00,
2013-09-09 15:00:00,66.2,46.5,30.21,South,190,8.0,8.0,49,0.00,,CLR,0.00,VWS V14.01,2013-09-09 19:00:00,
2013-09-09 15:05:00,66.2,46.5,30.21,South,190,8.0,8.0,49,0.00,,CLR,0.00,VWS V14.01,2013-09-09 19:05:00,
2013-09-09 15:11:00,66.2,46.5,30.21,South,190,8.0,8.0,49,0.00,,CLR,0.00,VWS V14.01,2013-09-09 19:11:00,
2013-09-09 15:16:00,66.2,46.5,30.21,South,190,8.0,8.0,49,0.00,,CLR,0.00,VWS V14.01,2013-09-09 19:16:00,
2013-09-09 15:22:00,66.2,46.5,30.21,South,190,8.0,8.0,49,0.00,,CLR,0.00,VWS V14.01,2013-09-09 19:22:00,
2013-09-09 15:27:00,66.2,46.5,30.21,South,190,8.0,8.0,49,0.00,,CLR,0.00,VWS V14.01,2013-09-09 19:27:00,
2013-09-09 15:34:00,66.2,46.5,30.21,South,190,8.0,8.0,49,0.00,,CLR,0.00,VWS V14.01,2013-09-09 19:34:00,
2013-09-09 15:39:00,66.2,46.5,30.21,South,190,8.0,8.0,49,0.00,,CLR,0.00,VWS V14.01,2013-09-09 19:39:00,
2013-09-09 15:45:00,66.2,46.5,30.21,South,190,8.0,8.0,49,0.00,,CLR,0.00,VWS V14.01,2013-09-09 19:45:00,
2013-09-09 15:50:00,66.2,46.5,30.21,South,190,8.0,8.0,49,0.00,,CLR,0.00,VWS V14.01,2013-09-09 19:50:00,
2013-09-09 15:55:00,66.2,46.5,30.21,South,190,8.0,8.0,49,0.00,,CLR,0.00,VWS V14.01,2013-09-09 19:55:00,
2013-09-09 15:56:00,64.4,50.2,30.21,South,180,6.0,6.0,60,0.00,,CLR,0.00,VWS V14.01,2013-09-09 19:56:00,
2013-09-09 16:00:00,64.4,50.2,30.21,South,180,6.0,8.0,60,0.00,,CLR,0.00,VWS V14.01,2013-09-09 20:00:00,
2013-09-09 16:05:00,64.4,50.2,30.21,South,180,6.0,6.0,60,0.00,,CLR,0.00,VWS V14.01,2013-09-09 20:05:00,
2013-09-09 16:10:00,64.4,50.2,30.21,South,180,6.0,6.0,60,0.00,,CLR,0.00,VWS V14.01,2013-09-09 20:10:00,
2013-09-09 16:16:00,64.4,50.2,30.21,South,180,6.0,6.0,60,0.00,,CLR,0.00,VWS V14.01,2013-09-09 20:16:00,
2013-09-09 16:25:00,64.4,50.2,30.21,South,180,6.0,6.0,60,0.00,,CLR,0.00,VWS V14.01,2013-09-09 20:25:00,
2013-09-09 16:30:00,64.4,50.2,30.21,South,180,6.0,6.0,60,0.00,,CLR,0.00,VWS V14.01,2013-09-09 20:30:00,
2013-09-09 16:35:00,64.4,50.2,30.21,South,180,6.0,6.0,60,0.00,,CLR,0.00,VWS V14.01,2013-09-09 20:35:00,
2013-09-09 16:46:00,64.4,50.2,30.21,South,180,6.0,6.0,60,0.00,,CLR,0.00,VWS V14.01,2013-09-09 20:46:00,
2013-09-09 16:51:00,64.4,50.2,30.21,South,180,6.0,6.0,60,0.00,,CLR,0.00,VWS V14.01,2013-09-09 20:51:00,
2013-09-09 16:55:00,64.4,50.2,30.21,South,180,6.0,6.0,60,0.00,,CLR,0.00,VWS V14.01,2013-09-09 20:55:00,
2013-09-09 16:56:00,66.2,50.1,30.21,South,180,9.0,9.0,56,0.00,,CLR,0.00,VWS V14.01,2013-09-09 20:56:00,
2013-09-09 17:00:00,66.2,50.1,30.21,South,180,9.0,9.0,56,0.00,,CLR,0.00,VWS V14.01,2013-09-09 21:00:00,
2013-09-09 17:05:00,66.2,50.1,30.21,South,180,9.0,9.0,56,0.00,,CLR,0.00,VWS V14.01,2013-09-09 21:05:00,
2013-09-09 17:10:00,66.2,50.1,30.21,South,180,9.0,9.0,56,0.00,,CLR,0.00,VWS V14.01,2013-09-09 21:10:00,
2013-09-09 17:16:00,66.2,50.1,30.21,South,180,9.0,9.0,56,0.00,,CLR,0.00,VWS V14.01,2013-09-09 21:16:00,
2013-09-09 17:22:00,66.2,50.1,30.21,South,180,9.0,9.0,56,0.00,,CLR,0.00,VWS V14.01,2013-09-09 21:22:00,
2013-09-09 17:27:00,66.2,50.1,30.21,South,180,9.0,9.0,56,0.00,,CLR,0.00,VWS V14.01,2013-09-09 21:27:00,
2013-09-09 17:32:00,66.2,50.1,30.21,South,180,9.0,9.0,56,0.00,,CLR,0.00,VWS V14.01,2013-09-09 21:32:00,
2013-09-09 17:37:00,66.2,50.1,30.21,South,180,9.0,9.0,56,0.00,,CLR,0.00,VWS V14.01,2013-09-09 21:37:00,
2013-09-09 17:44:00,66.2,50.1,30.21,South,180,9.0,9.0,56,0.00,,CLR,0.00,VWS V14.01,2013-09-09 21:44:00,
2013-09-09 17:49:00,66.2,50.1,30.21,South,180,9.0,9.0,56,0.00,,CLR,0.00,VWS V14.01,2013-09-09 21:49:00,
2013-09-09 17:54:00,66.2,50.1,30.21,South,180,9.0,9.0,56,0.00,,CLR,0.00,VWS V14.01,2013-09-09 21:54:00,
2013-09-09 17:56:00,64.4,50.2,30.19,SSW,200,11.0,11.0,60,0.00,,CLR,0.00,VWS V14.01,2013-09-09 21:56:00,
2013-09-09 17:59:00,66.2,50.1,30.21,South,180,9.0,9.0,56,0.00,,CLR,0.00,VWS V14.01,2013-09-09 21:59:00,
2013-09-09 18:04:00,64.4,50.2,30.19,SSW,200,11.0,11.0,60,0.00,,CLR,0.00,VWS V14.01,2013-09-09 22:04:00,
2013-09-09 18:10:00,64.4,50.2,30.19,SSW,200,11.0,11.0,60,0.00,,CLR,0.00,VWS V14.01,2013-09-09 22:10:00,
2013-09-09 18:15:00,64.4,50.2,30.19,SSW,200,11.0,11.0,60,0.00,,CLR,0.00,VWS V14.01,2013-09-09 22:15:00,
2013-09-09 18:20:00,64.4,50.2,30.19,SSW,200,11.0,11.0,60,0.00,,CLR,0.00,VWS V14.01,2013-09-09 22:20:00,
2013-09-09 18:25:00,64.4,50.2,30.19,SSW,200,11.0,11.0,60,0.00,,CLR,0.00,VWS V14.01,2013-09-09 22:25:00,
2013-09-09 18:34:00,64.4,50.2,30.19,SSW,200,11.0,11.0,60,0.00,,CLR,0.00,VWS V14.01,2013-09-09 22:34:00,
2013-09-09 18:39:00,64.4,50.2,30.19,SSW,200,11.0,11.0,60,0.00,,CLR,0.00,VWS V14.01,2013-09-09 22:39:00,
2013-09-09 18:46:00,64.4,50.2,30.19,SSW,200,11.0,11.0,60,0.00,,CLR,0.00,VWS V14.01,2013-09-09 22:46:00,
2013-09-09 18:51:00,64.4,50.2,30.19,SSW,200,11.0,11.0,60,0.00,,CLR,0.00,VWS V14.01,2013-09-09 22:51:00,
2013-09-09 18:56:00,64.4,50.2,30.19,SSW,200,11.0,11.0,60,0.00,,CLR,0.00,VWS V14.01,2013-09-09 22:56:00,
2013-09-09 19:01:00,64.4,50.2,30.18,SW,220,9.0,9.0,60,0.00,,CLR,0.00,VWS V14.01,2013-09-09 23:01:00,
2013-09-09 19:09:00,64.4,50.2,30.18,SW,220,9.0,9.0,60,0.00,,CLR,0.00,VWS V14.01,2013-09-09 23:09:00,
2013-09-09 19:14:00,64.4,50.2,30.18,SW,220,9.0,9.0,60,0.00,,CLR,0.00,VWS V14.01,2013-09-09 23:14:00,
2013-09-09 19:20:00,64.4,50.2,30.18,SW,220,9.0,9.0,60,0.00,,CLR,0.00,VWS V14.01,2013-09-09 23:20:00,
2013-09-09 19:25:00,64.4,50.2,30.18,SW,220,9.0,9.0,60,0.00,,CLR,0.00,VWS V14.01,2013-09-09 23:25:00,
2013-09-09 19:30:00,64.4,50.2,30.18,SW,220,9.0,9.0,60,0.00,,CLR,0.00,VWS V14.01,2013-09-09 23:30:00,
2013-09-09 19:35:00,64.4,50.2,30.18,SW,220,9.0,9.0,60,0.00,,CLR,0.00,VWS V14.01,2013-09-09 23:35:00,
2013-09-09 19:46:00,64.4,50.2,30.18,SW,220,9.0,9.0,60,0.00,,CLR,0.00,VWS V14.01,2013-09-09 23:46:00,
2013-09-09 19:51:00,64.4,50.2,30.18,SW,220,9.0,9.0,60,0.00,,CLR,0.00,VWS V14.01,2013-09-09 23:51:00,
2013-09-09 19:56:00,64.4,50.2,30.18,SW,220,9.0,9.0,60,0.00,,CLR,0.00,VWS V14.01,2013-09-09 23:56:00,
2013-09-09 20:01:00,64.4,50.2,30.18,SSW,200,11.0,11.0,60,0.00,,CLR,0.00,VWS V14.01,2013-09-10 00:01:00,
2013-09-09 20:06:00,64.4,50.2,30.18,SSW,200,11.0,11.0,60,0.00,,CLR,0.00,VWS V14.01,2013-09-10 00:06:00,
2013-09-09 20:12:00,64.4,50.2,30.18,SSW,200,11.0,11.0,60,0.00,,CLR,0.00,VWS V14.01,2013-09-10 00:12:00,
2013-09-09 20:18:00,64.4,50.2,30.18,SSW,200,11.0,11.0,60,0.00,,CLR,0.00,VWS V14.01,2013-09-10 00:18:00,
2013-09-09 20:27:00,64.4,50.2,30.18,SSW,200,11.0,11.0,60,0.00,,CLR,0.00,VWS V14.01,2013-09-10 00:27:00,
2013-09-09 20:32:00,64.4,50.2,30.18,SSW,200,11.0,11.0,60,0.00,,CLR,0.00,VWS V14.01,2013-09-10 00:32:00,
2013-09-09 20:39:00,64.4,50.2,30.18,SSW,200,11.0,11.0,60,0.00,,CLR,0.00,VWS V14.01,2013-09-10 00:39:00,
2013-09-09 20:45:00,64.4,50.2,30.18,SSW,200,11.0,11.0,60,0.00,,CLR,0.00,VWS V14.01,2013-09-10 00:45:00,
2013-09-09 20:50:00,64.4,50.2,30.18,SSW,200,11.0,11.0,60,0.00,,CLR,0.00,VWS V14.01,2013-09-10 00:50:00,
2013-09-09 20:55:00,64.4,50.2,30.18,SSW,200,11.0,11.0,60,0.00,,CLR,0.00,VWS V14.01,2013-09-10 00:55:00,
2013-09-09 20:56:00,64.4,48.4,30.19,SSW,210,14.0,14.0,56,0.00,,CLR,0.00,VWS V14.01,2013-09-10 00:56:00,
2013-09-09 21:00:00,64.4,48.4,30.19,SSW,210,14.0,14.0,56,0.00,,CLR,0.00,VWS V14.01,2013-09-10 01:00:00,
2013-09-09 21:05:00,64.4,48.4,30.19,SSW,210,14.0,14.0,56,0.00,,CLR,0.00,VWS V14.01,2013-09-10 01:05:00,
2013-09-09 21:10:00,64.4,48.4,30.19,SSW,210,14.0,14.0,56,0.00,,CLR,0.00,VWS V14.01,2013-09-10 01:10:00,
2013-09-09 21:17:00,64.4,48.4,30.19,SSW,210,14.0,14.0,56,0.00,,CLR,0.00,VWS V14.01,2013-09-10 01:17:00,
2013-09-09 21:22:00,64.4,48.4,30.19,SSW,210,14.0,14.0,56,0.00,,CLR,0.00,VWS V14.01,2013-09-10 01:22:00,
2013-09-09 21:27:00,64.4,48.4,30.19,SSW,210,14.0,14.0,56,0.00,,CLR,0.00,VWS V14.01,2013-09-10 01:27:00,
2013-09-09 21:32:00,64.4,48.4,30.19,SSW,210,14.0,14.0,56,0.00,,CLR,0.00,VWS V14.01,2013-09-10 01:32:00,
2013-09-09 21:37:00,64.4,48.4,30.19,SSW,210,14.0,14.0,56,0.00,,CLR,0.00,VWS V14.01,2013-09-10 01:37:00,
2013-09-09 21:42:00,64.4,48.4,30.19,SSW,210,14.0,14.0,56,0.00,,CLR,0.00,VWS V14.01,2013-09-10 01:42:00,
2013-09-09 21:47:00,64.4,48.4,30.19,SSW,210,14.0,14.0,56,0.00,,CLR,0.00,VWS V14.01,2013-09-10 01:47:00,
2013-09-09 21:52:00,64.4,48.4,30.19,SSW,210,14.0,14.0,56,0.00,,CLR,0.00,VWS V14.01,2013-09-10 01:52:00,
2013-09-09 21:56:00,64.4,52.0,30.18,SW,220,10.0,10.0,64,0.00,,CLR,0.00,VWS V14.01,2013-09-10 01:56:00,
2013-09-09 21:57:00,64.4,48.4,30.19,SSW,210,14.0,14.0,56,0.00,,CLR,0.00,VWS V14.01,2013-09-10 01:57:00,
2013-09-09 22:02:00,64.4,52.0,30.18,SW,220,10.0,10.0,64,0.00,,CLR,0.00,VWS V14.01,2013-09-10 02:02:00,
2013-09-09 22:13:00,64.4,52.0,30.18,SW,220,10.0,10.0,64,0.00,,CLR,0.00,VWS V14.01,2013-09-10 02:13:00,
2013-09-09 22:20:00,64.4,52.0,30.18,SW,220,10.0,10.0,64,0.00,,CLR,0.00,VWS V14.01,2013-09-10 02:20:00,
2013-09-09 22:28:00,64.4,52.0,30.18,SW,220,10.0,10.0,64,0.00,,CLR,0.00,VWS V14.01,2013-09-10 02:28:00,
2013-09-09 22:33:00,64.4,52.0,30.18,SW,220,10.0,10.0,64,0.00,,CLR,0.00,VWS V14.01,2013-09-10 02:33:00,
2013-09-09 22:40:00,64.4,52.0,30.18,SW,220,10.0,10.0,64,0.00,,CLR,0.00,VWS V14.01,2013-09-10 02:40:00,
2013-09-09 22:45:00,64.4,52.0,30.18,SW,220,10.0,10.0,64,0.00,,CLR,0.00,VWS V14.01,2013-09-10 02:45:00,
2013-09-09 22:50:00,64.4,52.0,30.18,SW,220,10.0,10.0,64,0.00,,CLR,0.00,VWS V14.01,2013-09-10 02:50:00,
2013-09-09 22:55:00,64.4,52.0,30.18,SW,220,10.0,10.0,64,0.00,,CLR,0.00,VWS V14.01,2013-09-10 02:55:00,
2013-09-09 22:56:00,64.4,53.6,30.18,SSW,210,13.0,13.0,68,0.00,,CLR,0.00,VWS V14.01,2013-09-10 02:56:00,
2013-09-09 23:00:00,64.4,52.0,30.18,SW,220,10.0,10.0,64,0.00,,CLR,0.00,VWS V14.01,2013-09-10 03:00:00,
2013-09-09 23:05:00,64.4,53.6,30.18,SSW,210,13.0,13.0,68,0.00,,CLR,0.00,VWS V14.01,2013-09-10 03:05:00,
2013-09-09 23:10:00,64.4,53.6,30.18,SSW,210,13.0,13.0,68,0.00,,CLR,0.00,VWS V14.01,2013-09-10 03:10:00,
2013-09-09 23:17:00,64.4,53.6,30.18,SSW,210,13.0,13.0,68,0.00,,CLR,0.00,VWS V14.01,2013-09-10 03:17:00,
2013-09-09 23:23:00,64.4,53.6,30.18,SSW,210,13.0,13.0,68,0.00,,CLR,0.00,VWS V14.01,2013-09-10 03:23:00,
2013-09-09 23:29:00,64.4,53.6,30.18,SSW,210,13.0,13.0,68,0.00,,CLR,0.00,VWS V14.01,2013-09-10 03:29:00,
2013-09-09 23:37:00,64.4,53.6,30.18,SSW,210,13.0,13.0,68,0.00,,CLR,0.00,VWS V14.01,2013-09-10 03:37:00,
2013-09-09 23:44:00,64.4,53.6,30.18,SSW,210,13.0,13.0,68,0.00,,CLR,0.00,VWS V14.01,2013-09-10 03:44:00,
2013-09-09 23:49:00,64.4,53.6,30.18,SSW,210,13.0,13.0,68,0.00,,CLR,0.00,VWS V14.01,2013-09-10 03:49:00,
2013-09-09 23:54:00,64.4,53.6,30.18,SSW,210,13.0,13.0,68,0.00,,CLR,0.00,VWS V14.01,2013-09-10 03:54:00,
2013-09-09 23:56:00,64.4,55.6,30.18,SSW,210,11.0,11.0,73,0.00,,CLR,0.00,VWS V14.01,2013-09-10 03:56:00,
2013-09-09 23:59:00,64.4,53.6,30.18,SSW,210,13.0,13.0,68,0.00,,CLR,0.00,VWS V14.01,2013-09-10 03:59:00,